Change the Weather History Date:

Tuesday, February 26, 2013

  Actual Average Record
Temperature  
Mean Temperature 30 °F -  
Max Temperature 34 °F 47 °F 73 °F (1999)
Min Temperature 27 °F 27 °F 10 °F (2002)
Degree Days  
Heating Degree Days 34    
Moisture  
Dew Point 30 °F    
Average Humidity 97    
Maximum Humidity 100    
Minimum Humidity 77    
Precipitation  
Precipitation 0.00 in - - ()
Sea Level Pressure  
Sea Level Pressure 29.76 in    
Wind  
Wind Speed 24 mph (North)    
Max Wind Speed 30 mph    
Max Gust Speed 38 mph    
Visibility 4 miles    
Events Snow    
Averages and records for this station are not official NWS values.
T = Trace of Precipitation, MM = Missing Value Source: NWS Daily Summary

Daily Weather History Graph

Daily Weather History Graph

Search for Another Location

Airport or City:

Trip Planner

Search our weather history database for the weather conditions in past years. The results will help you decide how hot, cold, wet, or windy it might be!

Date:

Astronomy

Feb. 26, 2013 Rise Set
Actual Time 7:04 AM CST 6:20 PM CST
Civil Twilight 6:37 AM CST 6:46 PM CST
Nautical Twilight 6:07 AM CST 7:16 PM CST
Astronomical Twilight 5:37 AM CST 7:47 PM CST
Moon 7:35 PM CST (2/26) 7:09 AM CST (2/26)
Length of Visible Light 12h 08m
Length of Day
11h 15m
Full, 99% of the Moon is Illuminated
Feb 26
Full
Mar 4
Last Quarter
Mar 11
New
Mar 19
First Quarter
Mar 27
Full

Hourly Weather History & Observations

Time (CST) Temp. Windchill Dew Point Humidity Pressure Visibility Wind Dir Wind Speed Gust Speed Precip Events Conditions
12:01 AM 32.0 °F 17.9 °F 32.0 °F 100% 29.72 in 1.2 mi North 28.8 mph 36.8 mph N/A Snow Light Snow
12:03 AM 32.0 °F 17.9 °F 32.0 °F 100% 29.72 in 1.2 mi North 28.8 mph 36.8 mph N/A Snow Light Snow
12:06 AM 32.0 °F 18.4 °F 32.0 °F 100% 29.72 in 1.2 mi North 26.5 mph 36.8 mph N/A Snow Light Snow
12:07 AM 32.0 °F 18.1 °F 32.0 °F 100% 29.72 in 1.5 mi North 27.6 mph 36.8 mph N/A Snow Light Snow
12:11 AM 32.0 °F 18.1 °F 32.0 °F 100% 29.72 in 1.8 mi North 27.6 mph 34.5 mph N/A Snow Light Snow
12:13 AM 32.0 °F 17.9 °F 32.0 °F 100% 29.72 in 1.8 mi North 28.8 mph 34.5 mph N/A Snow Light Snow
12:23 AM 32.0 °F 18.4 °F 32.0 °F 100% 29.72 in 1.8 mi North 26.5 mph 38.0 mph N/A   Overcast
12:26 AM 32.0 °F 18.4 °F 32.0 °F 100% 29.72 in 2.0 mi North 26.5 mph 33.4 mph N/A   Overcast
12:37 AM 32.0 °F 18.6 °F 32.0 °F 100% 29.73 in 2.5 mi North 25.3 mph 34.5 mph N/A Snow Light Snow
12:49 AM 32.0 °F 17.6 °F 32.0 °F 100% 29.72 in 2.5 mi North 29.9 mph 36.8 mph N/A Snow Light Snow
12:55 AM 31.8 °F 17.4 °F 31.8 °F 100% 29.72 in 2.5 mi North 29.9 mph 36.8 mph 0.00 in Snow Light Snow
1:07 AM 32.0 °F 18.6 °F 32.0 °F 100% 29.73 in 2.5 mi North 25.3 mph 33.4 mph N/A Snow Light Snow
1:09 AM 32.0 °F 18.6 °F 32.0 °F 100% 29.73 in 2.5 mi North 25.3 mph 33.4 mph N/A Snow Light Snow
1:12 AM 32.0 °F 17.9 °F 32.0 °F 100% 29.73 in 3.0 mi North 28.8 mph 32.2 mph N/A Snow Light Snow
1:17 AM 32.0 °F 18.6 °F 32.0 °F 100% 29.73 in 2.5 mi North 25.3 mph 33.4 mph N/A Snow Light Snow
1:19 AM 32.0 °F 18.9 °F 32.0 °F 100% 29.73 in 2.5 mi North 24.2 mph 33.4 mph N/A Snow Light Snow
1:23 AM 32.0 °F 18.9 °F 32.0 °F 100% 29.73 in 2.0 mi North 24.2 mph 33.4 mph N/A Snow Light Snow
1:24 AM 32.0 °F 18.6 °F 32.0 °F 100% 29.73 in 1.8 mi North 25.3 mph 33.4 mph N/A Snow Light Snow
1:33 AM 32.0 °F 18.4 °F 32.0 °F 100% 29.73 in 1.2 mi North 26.5 mph 33.4 mph N/A Snow Light Snow
1:38 AM 32.0 °F 18.6 °F 32.0 °F 100% 29.73 in 1.2 mi North 25.3 mph 36.8 mph N/A Snow Light Snow
1:42 AM 32.0 °F 18.9 °F 32.0 °F 100% 29.73 in 1.2 mi North 24.2 mph 36.8 mph N/A Snow Light Snow
1:47 AM 32.0 °F 19.2 °F 32.0 °F 100% 29.73 in 1.5 mi North 23.0 mph 32.2 mph N/A Snow Light Snow
1:55 AM 31.3 °F 17.4 °F 31.3 °F 100% 29.73 in 1.5 mi North 26.5 mph 33.4 mph 0.00 in Snow Light Snow
2:00 AM 32.0 °F 17.9 °F 32.0 °F 100% 29.74 in 1.2 mi North 28.8 mph 34.5 mph N/A Snow Light Snow
2:04 AM 32.0 °F 18.4 °F 32.0 °F 100% 29.74 in 1.2 mi North 26.5 mph 34.5 mph N/A Snow Light Snow
2:09 AM 32.0 °F 18.4 °F 32.0 °F 100% 29.73 in 1.5 mi North 26.5 mph 38.0 mph N/A Snow Light Snow
2:16 AM 32.0 °F 18.1 °F 32.0 °F 100% 29.73 in 1.5 mi North 27.6 mph 38.0 mph N/A Snow Light Snow
2:17 AM 32.0 °F 18.1 °F 32.0 °F 100% 29.73 in 1.2 mi North 27.6 mph 38.0 mph N/A Snow Light Snow
2:19 AM 32.0 °F 18.4 °F 32.0 °F 100% 29.73 in 1.2 mi North 26.5 mph 34.5 mph N/A Snow Light Snow
2:20 AM 32.0 °F 18.4 °F 32.0 °F 100% 29.73 in 1.2 mi North 26.5 mph 34.5 mph N/A Snow Light Snow
2:21 AM 32.0 °F 18.4 °F 32.0 °F 100% 29.73 in 1.0 mi North 26.5 mph 34.5 mph N/A Snow Light Snow
2:22 AM 32.0 °F 18.6 °F 32.0 °F 100% 29.73 in 1.0 mi North 25.3 mph 34.5 mph N/A Snow Light Snow
2:23 AM 32.0 °F 18.6 °F 32.0 °F 100% 29.73 in 1.0 mi North 25.3 mph 34.5 mph N/A Snow Light Snow
2:24 AM 32.0 °F 18.4 °F 32.0 °F 100% 29.73 in 1.0 mi North 26.5 mph 34.5 mph N/A Snow Light Snow
2:41 AM 32.0 °F 18.9 °F 32.0 °F 100% 29.73 in 1.0 mi North 24.2 mph 31.1 mph N/A Snow Light Snow
2:44 AM 32.0 °F 18.6 °F 32.0 °F 100% 29.73 in 1.0 mi North 25.3 mph 31.1 mph N/A Snow Light Snow
2:55 AM 31.1 °F 17.2 °F 31.1 °F 100% 29.73 in 1.0 mi North 26.5 mph 31.1 mph 0.00 in Snow Light Snow
3:06 AM 32.0 °F 19.2 °F 32.0 °F 100% 29.73 in 1.0 mi North 23.0 mph 33.4 mph N/A Snow Light Snow
3:08 AM 32.0 °F 18.9 °F 32.0 °F 100% 29.72 in 1.2 mi North 24.2 mph 33.4 mph N/A Snow Light Snow
3:16 AM 32.0 °F 18.4 °F 32.0 °F 100% 29.73 in 1.2 mi North 26.5 mph 35.7 mph N/A Snow Light Snow
3:22 AM 32.0 °F 19.2 °F 32.0 °F 100% 29.73 in 1.2 mi North 23.0 mph 32.2 mph N/A Snow Light Snow
3:34 AM 32.0 °F 18.1 °F 32.0 °F 100% 29.73 in 1.2 mi North 27.6 mph 35.7 mph N/A Snow Light Snow
3:38 AM 30.2 °F 15.7 °F 30.2 °F 100% 29.73 in 1.2 mi North 27.6 mph 35.7 mph N/A Snow Light Snow
3:44 AM 30.2 °F 15.9 °F 30.2 °F 100% 29.73 in 1.2 mi North 26.5 mph 35.7 mph N/A Snow Light Snow
3:55 AM 30.9 °F 17.2 °F 30.9 °F 100% 29.73 in 1.2 mi North 25.3 mph 36.8 mph 0.00 in Snow Light Snow
4:03 AM 30.2 °F 16.2 °F 30.2 °F 100% 29.73 in 1.5 mi North 25.3 mph 33.4 mph N/A Snow Light Snow
4:07 AM 30.2 °F 16.2 °F 30.2 °F 100% 29.73 in 1.5 mi North 25.3 mph - N/A Snow Light Snow
4:14 AM 30.2 °F 16.2 °F 30.2 °F 100% 29.73 in 1.5 mi North 25.3 mph - N/A Snow Light Snow
4:19 AM 30.2 °F 15.7 °F 30.2 °F 100% 29.73 in 1.2 mi North 27.6 mph 33.4 mph N/A Snow Light Snow
4:25 AM 30.2 °F 15.7 °F 30.2 °F 100% 29.73 in 1.2 mi North 27.6 mph 38.0 mph N/A Snow Light Snow
4:29 AM 30.2 °F 15.7 °F 30.2 °F 100% 29.73 in 1.2 mi North 27.6 mph 38.0 mph N/A Snow Light Snow
4:30 AM 30.2 °F 15.9 °F 30.2 °F 100% 29.73 in 1.2 mi North 26.5 mph 38.0 mph N/A Snow Light Snow
4:37 AM 30.2 °F 16.5 °F 30.2 °F 100% 29.73 in 1.5 mi NNW 24.2 mph 32.2 mph N/A Snow Light Snow
4:47 AM 30.2 °F 15.9 °F 30.2 °F 100% 29.73 in 1.2 mi North 26.5 mph 32.2 mph N/A Snow Light Snow
4:55 AM 30.4 °F 16.7 °F 30.4 °F 100% 29.73 in 1.2 mi North 24.2 mph 32.2 mph 0.00 in Snow Light Snow
4:57 AM 30.2 °F 16.5 °F 30.2 °F 100% 29.72 in 1.2 mi North 24.2 mph 32.2 mph N/A Snow Light Snow
4:58 AM 30.2 °F 16.5 °F 30.2 °F 100% 29.72 in 1.2 mi North 24.2 mph 32.2 mph N/A Snow Light Snow
5:01 AM 30.2 °F 16.5 °F 30.2 °F 100% 29.72 in 1.5 mi North 24.2 mph 32.2 mph N/A Snow Light Snow
5:05 AM 30.2 °F 17.8 °F 30.2 °F 100% 29.73 in 1.5 mi North 19.6 mph 32.2 mph N/A Snow Light Snow
5:12 AM 30.2 °F 17.8 °F 30.2 °F 100% 29.73 in 2.0 mi North 19.6 mph 27.6 mph N/A Snow Light Snow
5:18 AM 30.2 °F 17.8 °F 30.2 °F 100% 29.73 in 2.5 mi North 19.6 mph - N/A Snow Light Snow
5:20 AM 30.2 °F 18.1 °F 30.2 °F 100% 29.73 in 3.0 mi North 18.4 mph - N/A Snow Light Snow
5:25 AM 30.2 °F 18.1 °F 30.2 °F 100% 29.73 in 4.0 mi North 18.4 mph - N/A Snow Light Snow
5:35 AM 30.2 °F 17.4 °F 30.2 °F 100% 29.72 in 5.0 mi North 20.7 mph 28.8 mph N/A   Mostly Cloudy
5:37 AM 30.2 °F 18.1 °F 30.2 °F 100% 29.72 in 5.0 mi North 18.4 mph 28.8 mph N/A   Scattered Clouds
5:43 AM 30.2 °F 18.5 °F 30.2 °F 100% 29.72 in 7.0 mi North 17.3 mph - N/A   Light Freezing Rain
5:55 AM 30.6 °F 17.9 °F 30.6 °F 100% 29.72 in 7.0 mi North 20.7 mph 26.5 mph 0.00 in   Light Freezing Rain
6:02 AM 30.2 °F 17.1 °F 30.2 °F 100% 29.72 in 5.0 mi North 21.9 mph 32.2 mph N/A   Light Freezing Rain
6:12 AM 30.2 °F 17.1 °F 30.2 °F 100% 29.72 in 6.0 mi North 21.9 mph 29.9 mph N/A   Partly Cloudy
6:15 AM 30.2 °F 17.1 °F 30.2 °F 100% 29.72 in 6.0 mi North 21.9 mph 28.8 mph N/A   Light Freezing Rain
6:22 AM 28.4 °F 14.7 °F 28.4 °F 100% 29.73 in 7.0 mi North 21.9 mph 28.8 mph N/A   Light Freezing Rain
6:23 AM 28.4 °F 14.7 °F 28.4 °F 100% 29.73 in 7.0 mi North 21.9 mph 28.8 mph N/A   Partly Cloudy
6:55 AM 28.6 °F 15.6 °F 28.6 °F 100% 29.73 in 8.0 mi North 19.6 mph 26.5 mph 0.00 in   Clear
7:55 AM 27.5 °F 14.6 °F 27.5 °F 100% 29.75 in 7.0 mi North 18.4 mph - N/A   Clear
8:55 AM 28.6 °F 15.0 °F 28.4 °F 99% 29.76 in 9.0 mi North 21.9 mph 26.5 mph N/A   Clear
8:57 AM 28.4 °F 14.7 °F 28.4 °F 100% 29.76 in 10.0 mi North 21.9 mph - N/A   Light Freezing Rain
9:10 AM 28.4 °F 14.7 °F 28.4 °F 100% 29.77 in 10.0 mi NNW 21.9 mph - N/A   Clear
9:55 AM 30.0 °F 18.3 °F 29.1 °F 96% 29.81 in 10.0 mi NNW 17.3 mph 29.9 mph 0.00 in   Clear
10:55 AM 31.3 °F 18.9 °F 29.1 °F 92% 29.81 in 10.0 mi North 20.7 mph 26.5 mph N/A   Mostly Cloudy
11:55 AM 34.2 °F 24.8 °F 29.7 °F 84% 29.80 in 10.0 mi North 13.8 mph - N/A   Scattered Clouds
12:55 PM 34.5 °F 25.3 °F 29.1 °F 81% 29.80 in 10.0 mi North 13.8 mph - N/A   Clear
1:55 PM 34.7 °F 25.9 °F 29.1 °F 80% 29.78 in 10.0 mi NNW 12.7 mph - N/A   Clear
2:55 PM 33.4 °F 23.1 °F 28.2 °F 81% 29.81 in 10.0 mi NNW 16.1 mph - N/A   Clear
3:55 PM 34.0 °F 26.0 °F 28.0 °F 79% 29.83 in 10.0 mi NNW 10.4 mph - N/A   Clear
4:55 PM 34.3 °F 26.5 °F 27.9 °F 77% 29.85 in 10.0 mi NW 10.4 mph - N/A   Clear
5:55 PM 32.4 °F 23.0 °F 27.7 °F 83% 29.86 in 10.0 mi North 12.7 mph - N/A   Clear
6:22 PM 32.0 °F 24.2 °F 28.4 °F 87% 29.88 in 10.0 mi NNW 9.2 mph - N/A   Mostly Cloudy
6:44 PM 32.0 °F 24.2 °F 28.4 °F 87% 29.89 in 10.0 mi NNW 9.2 mph - N/A   Mostly Cloudy
6:45 PM 32.0 °F 23.6 °F 28.4 °F 87% 29.89 in 10.0 mi NNW 10.4 mph - N/A   Mostly Cloudy
6:55 PM 31.5 °F 22.9 °F 28.4 °F 88% 29.89 in 10.0 mi NNW 10.4 mph - N/A   Mostly Cloudy
7:30 PM 32.0 °F 23.0 °F 28.4 °F 87% 29.92 in 10.0 mi NW 11.5 mph - N/A   Overcast
7:49 PM 32.0 °F 24.2 °F 28.4 °F 87% 29.94 in 10.0 mi NW 9.2 mph - N/A   Overcast
7:55 PM 31.3 °F 23.3 °F 28.2 °F 88% 29.94 in 10.0 mi NW 9.2 mph - N/A   Overcast
8:33 PM 30.2 °F 22.6 °F 28.4 °F 93% 29.96 in 10.0 mi NNW 8.1 mph - N/A   Overcast
8:55 PM 30.7 °F 22.0 °F 27.9 °F 89% 29.95 in 10.0 mi NNW 10.4 mph - N/A   Mostly Cloudy
9:55 PM 30.4 °F 20.5 °F 28.4 °F 92% 29.94 in 10.0 mi North 12.7 mph - N/A   Mostly Cloudy
10:55 PM 30.0 °F 21.1 °F 29.3 °F 97% 29.94 in 10.0 mi North 10.4 mph - N/A   Mostly Cloudy
11:55 PM 30.6 °F 23.8 °F 30.4 °F 99% 29.96 in 10.0 mi NNW 6.9 mph - N/A   Overcast